Wind_Speed
9 9 9 8 7 5 4 2 2 1 3 5 6 6 6 5 6 7 7 7 7 8 9 9 9 9 10 10 10 10 10 10 11 11 11 12 12 13 13 13 13 13 13 13 13 14 14 14 14
10 10 10 10 9 6 4 2 2 1 3 5 6 6 6 7 7 7 8 8 9 9 10 10 10 10 10 10 11 11 11 11 12 12 13 13 14 14 15 15 15 14 15 15 15 15 15 15 15
11 11 10 10 9 7 5 4 3 2 3 5 6 6 7 8 9 9 9 9 10 11 11 11 11 11 11 11 11 12 12 13 13 14 14 15 15 16 16 16 16 16 16 16 17 17 16 16 16
12 11 11 10 9 7 5 5 5 4 5 6 7 8 9 10 10 10 10 11 11 12 12 12 12 13 13 13 13 13 14 15 15 15 15 16 16 17 17 17 18 18 18 18 18 18 18 18 18
12 12 11 10 9 7 6 6 7 7 6 7 8 10 10 10 10 11 12 12 13 12 12 13 13 13 14 14 14 15 16 17 17 17 17 17 18 18 18 19 19 19 19 19 19 19 19 19 20
13 13 12 11 10 9 8 8 8 8 8 9 10 11 11 11 12 13 13 14 14 14 14 14 14 14 14 15 15 16 17 17 18 18 19 19 19 19 20 20 20 20 20 20 20 21 22 22 22
12 12 12 11 11 10 10 9 9 9 10 10 10 10 12 12 13 14 14 15 16 15 15 15 16 16 16 16 17 17 17 18 18 19 20 20 20 21 21 21 22 22 22 22 22 22 24 24 24
11 12 12 11 11 10 11 10 10 11 10 11 11 10 11 12 13 14 15 15 16 16 16 16 17 17 17 18 18 18 19 19 20 20 21 22 22 22 22 22 23 23 24 23 24 24 25 26 26
12 12 12 11 11 11 12 12 12 11 11 10 11 11 12 13 14 14 15 16 16 16 17 18 19 19 20 19 19 20 20 21 22 22 22 22 23 24 24 24 24 24 24 24 25 25 25 25 26
11 12 12 11 12 12 13 14 13 12 11 11 11 12 13 13 14 15 16 17 17 18 18 19 20 21 21 22 21 21 22 22 23 23 23 23 24 25 24 25 25 25 25 26 26 26 26 26 26
11 11 10 11 12 13 14 14 13 12 12 12 13 13 13 14 15 16 17 17 18 19 20 21 21 22 23 23 23 23 24 23 24 24 24 25 24 24 25 25 25 25 25 26 25 26 26 25 25
9 10 11 11 12 13 13 13 13 13 13 14 15 16 16 16 16 17 18 18 19 20 21 22 22 23 24 24 24 24 25 25 25 25 25 25 25 25 25 25 26 25 25 26 25 25 26 26 25
9 10 10 11 12 13 13 14 15 15 16 17 17 18 17 18 18 19 19 19 20 21 22 22 23 24 25 24 24 25 25 25 26 26 27 27 26 27 27 27 27 26 26 26 26 25 25 26 26
10 10 11 13 14 13 14 15 16 16 18 19 19 19 21 20 20 21 21 21 21 21 22 23 24 24 25 24 24 25 25 26 27 27 28 28 27 27 27 27 27 27 27 27 27 26 26 26 26
11 11 12 14 14 15 16 16 17 19 20 20 20 20 21 21 21 22 23 24 23 23 23 24 25 25 25 25 26 26 26 27 27 28 28 29 28 28 28 27 28 28 28 27 27 27 27 27 27
11 12 13 14 15 16 17 17 18 19 19 20 20 21 21 22 23 23 23 24 23 22 23 24 25 24 25 26 25 25 24 26 27 27 28 29 29 28 28 28 28 28 27 27 27 27 27 27 26
13 13 14 15 15 16 18 19 19 20 20 20 21 21 22 23 24 25 24 22 21 22 24 25 25 25 26 25 25 25 25 26 26 27 28 28 29 28 28 28 28 28 28 28 28 27 27 27 27
13 14 14 15 15 16 18 18 20 20 20 21 22 22 23 24 25 25 24 22 22 23 25 25 25 25 25 26 26 27 28 29 27 27 28 28 27 27 27 27 28 28 28 28 28 28 27 27 28
13 13 14 15 15 16 16 18 19 20 20 21 22 23 24 24 25 24 22 23 24 25 25 25 26 26 27 28 28 27 29 29 27 26 26 25 25 25 26 26 26 27 28 28 27 28 28 29 29
13 13 14 14 16 18 17 17 18 20 21 22 22 22 23 24 24 22 21 22 24 24 25 26 26 28 29 29 28 28 28 29 26 23 23 23 24 24 25 25 27 27 27 27 28 28 28 28 29
13 14 15 15 17 19 20 19 20 20 21 22 22 23 22 22 23 22 21 22 23 24 25 25 27 27 28 28 28 27 27 26 25 23 23 23 24 24 23 25 26 26 26 26 27 27 27 28 28
14 14 15 16 17 19 20 21 20 20 20 21 22 22 22 22 22 23 23 23 24 25 26 27 27 27 27 27 28 28 26 25 25 23 23 23 23 24 24 25 25 26 26 26 25 26 26 27 27
13 14 15 17 18 19 20 21 20 20 20 20 21 21 22 23 24 23 23 23 24 26 27 27 27 27 27 27 27 26 25 25 25 24 23 22 22 23 24 24 24 25 25 25 24 25 26 26 26
14 16 16 17 18 19 19 20 20 21 21 20 20 20 21 22 22 22 23 24 25 26 27 27 28 27 26 26 26 25 25 24 24 23 22 21 21 22 23 23 23 24 24 24 24 24 25 25 25
15 16 18 18 17 17 18 20 20 20 20 19 20 21 21 21 22 23 24 24 24 25 26 26 26 26 26 25 25 24 25 24 23 22 21 21 20 20 20 21 22 23 23 23 23 24 24 25 25
15 16 17 18 18 17 17 19 19 19 18 20 20 20 21 22 23 24 25 24 24 24 24 25 26 25 24 24 24 24 22 21 21 21 21 20 19 19 20 20 21 23 23 23 23 23 24 25 25
16 16 16 18 18 18 18 18 17 18 19 20 21 21 22 22 22 23 24 24 24 24 25 25 24 23 23 23 23 22 20 20 19 20 21 21 20 20 20 21 22 23 23 23 23 24 25 25 25
15 16 16 17 18 19 18 18 18 18 19 20 20 20 21 21 22 23 23 24 23 24 25 24 23 23 22 22 21 21 20 19 19 20 20 21 21 20 21 21 21 22 22 23 23 24 25 25 25
15 15 16 17 18 20 20 18 18 19 19 19 20 21 21 22 22 23 24 23 23 23 24 23 22 21 21 20 19 19 18 17 18 18 19 19 19 19 19 20 20 21 22 22 23 24 24 25 25
15 17 18 18 18 19 20 19 19 19 19 19 20 21 22 23 24 23 23 22 21 22 22 21 20 19 18 18 17 17 17 18 17 17 18 17 17 18 19 20 21 22 23 23 23 23 24 24 24
Wind_Direction
215 217 217 218 217 212 205 200 228 300 344 348 350 352 352 351 347 341 337 329 323 322 320 316 311 313 313 312 313 315 318 319 317 316 319 319 317 316 312 309 306 302 300 299 299 298 298 297 296
220 221 222 224 226 223 211 219 239 291 311 322 333 342 340 336 334 333 330 325 323 319 318 315 310 312 312 310 311 311 312 311 311 311 313 313 313 312 312 308 303 299 297 296 296 296 295 295 293
224 224 225 224 221 231 237 243 248 266 300 309 321 325 319 320 322 323 322 322 320 318 314 311 308 308 306 305 306 307 308 307 305 305 306 307 308 309 308 307 304 299 296 294 293 292 292 291 289
225 224 226 224 221 227 238 246 253 264 284 298 308 315 310 312 313 312 313 314 313 314 312 308 305 305 306 303 304 304 304 304 302 300 301 303 305 306 305 303 303 301 296 294 292 289 288 288 286
224 222 224 226 227 231 238 241 245 254 272 296 301 307 309 313 317 314 310 310 310 311 311 307 308 306 306 304 301 301 301 302 301 299 299 300 301 301 301 300 300 299 297 295 292 289 288 287 285
224 224 225 225 228 236 241 244 249 262 271 282 292 297 308 309 312 312 311 311 309 308 307 306 305 305 305 304 301 301 301 302 301 300 299 297 297 298 297 295 295 295 294 293 292 290 286 284 283
222 225 227 228 232 243 249 253 264 269 272 279 291 295 303 307 307 308 308 307 306 304 305 305 303 301 301 301 301 300 298 298 298 299 299 297 295 295 296 296 294 292 291 290 289 288 286 283 281
225 226 228 232 239 247 254 256 261 264 273 283 290 301 303 303 305 306 307 306 304 302 303 304 303 302 301 300 300 300 299 297 297 297 298 296 293 294 295 295 295 292 289 288 286 286 287 284 282
225 226 229 235 246 254 254 257 261 264 275 287 294 299 301 300 302 305 307 306 305 304 303 303 303 301 301 300 297 297 296 295 295 296 296 295 293 293 293 292 290 290 289 287 286 285 286 285 284
229 229 232 238 248 255 254 258 266 271 279 287 292 296 300 300 302 305 306 305 305 305 303 302 302 302 301 298 296 296 295 295 295 295 294 294 293 292 292 291 289 288 288 286 285 283 284 284 283
234 237 239 242 249 255 256 258 268 276 280 285 292 295 302 302 303 303 303 303 304 303 303 303 302 300 298 296 295 296 294 293 293 293 292 292 291 291 291 291 291 289 287 286 285 282 283 283 281
239 244 245 247 253 255 257 262 271 276 281 285 289 297 304 300 298 300 300 302 303 303 302 301 302 300 299 296 295 294 293 291 291 291 290 290 290 289 289 290 291 289 287 285 286 284 282 281 281
252 253 252 251 252 255 258 263 271 278 282 284 289 295 297 300 297 297 298 301 304 304 301 297 299 298 295 295 296 295 294 292 291 289 289 288 289 289 289 289 290 289 287 287 285 283 281 279 280
256 253 254 255 257 261 260 264 271 275 279 282 285 290 294 296 298 299 298 297 299 301 300 299 297 296 293 294 295 295 292 292 292 289 288 287 287 288 289 290 288 287 287 286 284 281 280 279 277
259 259 256 258 261 263 265 265 268 272 275 279 282 286 289 291 295 297 298 297 298 299 296 296 296 294 293 294 296 294 292 292 292 289 286 287 287 287 287 287 285 285 286 285 283 281 280 279 278
262 261 260 261 263 265 268 269 271 274 275 278 283 288 288 291 295 296 298 298 297 297 294 293 295 296 296 297 296 295 294 294 293 291 290 287 287 287 286 285 284 285 285 284 281 278 278 278 279
264 261 262 263 267 270 271 273 273 275 278 282 285 287 289 292 296 295 296 297 296 297 296 294 296 298 299 298 296 295 295 295 293 294 294 290 286 286 287 285 284 284 283 283 281 279 278 278 278
269 269 268 267 269 271 272 273 275 278 281 283 286 288 290 291 295 294 294 297 297 297 298 297 298 299 298 297 296 298 299 298 294 294 297 291 286 286 287 287 285 284 283 282 281 280 279 279 278
278 279 275 275 277 278 279 279 280 282 283 284 286 287 290 293 296 295 295 296 298 298 297 297 298 297 297 297 298 299 300 299 297 297 300 297 291 289 288 287 286 285 284 283 282 281 280 279 277
283 282 284 282 281 284 285 287 288 287 285 286 287 288 292 293 293 292 294 296 297 298 297 298 298 299 299 298 298 298 300 299 298 299 300 298 293 290 288 287 285 285 284 284 283 282 282 280 279
286 289 289 289 288 288 288 290 292 290 289 290 292 293 293 293 293 293 293 292 294 295 295 298 298 298 299 299 299 299 300 300 300 298 297 295 294 292 290 289 289 287 287 285 285 284 284 282 281
287 290 292 293 293 293 294 294 296 294 294 294 294 295 295 294 294 294 295 296 296 297 296 297 300 300 298 298 301 302 302 301 299 296 296 295 295 293 291 289 289 288 288 286 288 288 286 285 282
300 300 298 298 298 297 297 297 299 299 300 299 296 295 295 293 294 294 294 295 297 299 299 299 298 298 298 298 301 303 302 302 300 295 294 293 293 294 292 292 291 289 288 288 289 289 289 289 286
305 306 306 304 302 300 301 301 302 304 303 304 301 298 296 295 295 295 296 296 297 299 300 300 299 299 299 299 300 302 302 301 300 297 296 296 294 295 295 294 293 291 291 292 291 290 291 292 291
307 307 309 311 308 308 308 306 307 309 307 307 307 303 300 297 296 296 300 300 300 302 302 301 300 301 299 298 298 298 299 298 297 299 299 297 297 298 299 300 299 296 296 295 293 292 291 292 292
312 314 315 317 314 311 312 313 314 313 311 310 309 307 305 303 302 300 303 303 303 303 304 304 302 301 301 300 298 298 299 297 297 298 300 301 302 303 303 302 302 299 298 298 296 294 293 294 293
318 318 322 322 320 317 317 318 316 316 314 314 312 308 308 306 304 303 304 304 306 307 306 306 304 302 301 301 300 300 301 300 299 301 302 304 306 305 304 304 304 303 301 300 298 296 296 295 294
325 326 326 325 323 322 324 323 320 319 316 315 312 311 308 307 306 306 307 307 308 309 310 309 308 306 303 302 302 302 301 304 304 304 304 306 307 306 305 305 305 305 306 303 300 300 298 298 296
327 327 327 327 326 326 327 329 325 323 319 317 315 314 311 309 310 310 311 312 312 313 314 313 311 308 306 305 304 305 308 308 307 307 306 308 309 309 309 308 308 306 306 306 304 302 300 300 298
324 324 326 327 328 326 326 331 329 328 325 324 321 317 314 313 313 313 312 313 313 314 316 317 315 312 309 307 306 307 310 312 312 311 309 310 309 310 311 311 310 309 309 309 306 306 305 304 301
Height
5871 5873 5875 5877 5879 5879 5879 5880 5879 5879 5880 5880 5881 5881 5881 5881 5882 5884 5882 5880 5880 5880 5879 5879 5878 5877 5876 5875 5875 5874 5873 5872 5872 5871 5870 5870 5869 5868 5867 5867 5866 5865 5864 5864 5863 5863 5862 5862 5861
5870 5871 5874 5875 5876 5877 5879 5879 5879 5879 5880 5880 5880 5881 5881 5880 5880 5880 5879 5879 5879 5878 5878 5878 5877 5876 5875 5874 5873 5872 5872 5871 5870 5869 5869 5868 5867 5866 5865 5864 5863 5862 5862 5861 5860 5860 5859 5859 5859
5868 5870 5872 5874 5875 5876 5878 5878 5878 5879 5879 5879 5879 5880 5880 5879 5879 5879 5878 5878 5877 5877 5876 5876 5875 5874 5873 5872 5872 5871 5870 5869 5868 5867 5866 5865 5864 5863 5862 5861 5860 5859 5859 5858 5857 5857 5856 5856 5855
5866 5868 5871 5873 5874 5875 5876 5877 5877 5878 5878 5878 5878 5879 5879 5879 5878 5877 5877 5876 5875 5875 5874 5874 5873 5872 5872 5871 5870 5869 5868 5867 5866 5864 5863 5862 5861 5860 5859 5858 5857 5856 5855 5854 5854 5853 5852 5852 5852
5864 5867 5869 5871 5873 5874 5875 5875 5876 5877 5877 5877 5877 5877 5877 5877 5876 5875 5875 5874 5873 5872 5872 5872 5871 5870 5869 5868 5867 5866 5865 5864 5863 5861 5860 5859 5858 5856 5855 5854 5853 5852 5851 5850 5850 5849 5849 5848 5848
5864 5866 5868 5870 5872 5873 5873 5874 5875 5875 5875 5875 5876 5876 5876 5875 5874 5874 5873 5872 5871 5870 5870 5869 5868 5867 5866 5865 5864 5863 5862 5861 5860 5859 5857 5856 5854 5853 5852 5851 5850 5849 5848 5847 5846 5845 5844 5843 5843
5863 5865 5866 5868 5870 5871 5872 5872 5873 5873 5873 5874 5874 5874 5873 5873 5873 5872 5871 5870 5869 5868 5867 5866 5866 5864 5863 5862 5861 5860 5859 5858 5856 5855 5854 5852 5851 5850 5848 5847 5846 5845 5844 5843 5842 5840 5839 5838 5838
5861 5864 5865 5867 5868 5870 5871 5871 5870 5871 5871 5872 5872 5872 5871 5871 5870 5870 5869 5868 5867 5865 5864 5863 5862 5861 5860 5859 5857 5856 5855 5854 5853 5851 5850 5848 5847 5846 5845 5843 5842 5840 5839 5838 5837 5836 5835 5834 5833
5860 5863 5863 5865 5866 5868 5868 5868 5868 5868 5869 5869 5869 5869 5869 5868 5868 5867 5866 5865 5864 5863 5862 5860 5859 5858 5857 5855 5854 5852 5851 5850 5849 5847 5846 5844 5843 5842 5840 5838 5837 5835 5834 5833 5832 5831 5830 5829 5828
5858 5860 5862 5863 5864 5865 5865 5866 5865 5866 5866 5867 5867 5866 5866 5865 5865 5864 5863 5862 5861 5859 5858 5857 5856 5854 5853 5852 5850 5849 5847 5846 5844 5843 5841 5840 5838 5837 5835 5834 5832 5830 5829 5828 5827 5825 5824 5824 5823
5857 5859 5860 5861 5862 5863 5863 5863 5863 5864 5864 5864 5864 5863 5863 5862 5862 5861 5860 5859 5857 5856 5854 5853 5851 5850 5849 5847 5846 5844 5842 5841 5840 5838 5837 5835 5833 5832 5830 5829 5827 5825 5823 5822 5821 5820 5819 5818 5818
5857 5858 5859 5860 5860 5861 5861 5862 5861 5862 5862 5862 5861 5860 5860 5858 5858 5858 5856 5855 5853 5852 5850 5849 5847 5845 5844 5842 5841 5839 5838 5836 5835 5833 5832 5830 5828 5827 5825 5824 5822 5820 5818 5817 5816 5815 5814 5813 5813
5856 5857 5857 5858 5858 5859 5859 5859 5859 5860 5860 5859 5858 5857 5857 5856 5855 5854 5852 5851 5849 5848 5846 5844 5843 5841 5839 5837 5835 5834 5832 5831 5829 5828 5826 5824 5823 5821 5820 5818 5816 5814 5813 5812 5810 5809 5808 5807 5807
5855 5855 5856 5856 5856 5856 5857 5857 5858 5857 5857 5856 5855 5854 5853 5852 5851 5850 5848 5847 5845 5843 5841 5839 5838 5835 5833 5831 5829 5828 5826 5825 5823 5821 5820 5818 5816 5815 5813 5812 5810 5808 5807 5806 5804 5803 5802 5801 5800
5854 5855 5855 5854 5854 5854 5855 5855 5855 5854 5853 5853 5852 5851 5850 5848 5847 5845 5844 5842 5840 5838 5836 5834 5832 5830 5828 5826 5824 5822 5820 5818 5816 5815 5813 5811 5809 5808 5807 5805 5804 5802 5801 5799 5798 5797 5796 5795 5794
5852 5853 5853 5853 5852 5851 5853 5852 5852 5850 5850 5849 5848 5847 5846 5844 5843 5841 5839 5837 5835 5833 5831 5828 5827 5825 5823 5820 5818 5816 5814 5812 5810 5808 5806 5804 5802 5801 5800 5798 5797 5795 5794 5792 5791 5790 5789 5788 5787
5851 5851 5850 5850 5849 5849 5849 5848 5848 5847 5847 5845 5844 5843 5842 5840 5839 5836 5834 5832 5830 5828 5826 5823 5821 5819 5817 5814 5812 5810 5808 5806 5803 5801 5799 5797 5795 5794 5792 5791 5790 5788 5787 5786 5785 5783 5782 5781 5780
5849 5849 5848 5848 5847 5846 5845 5845 5844 5844 5843 5842 5841 5839 5837 5836 5834 5831 5829 5827 5825 5823 5821 5818 5816 5814 5811 5809 5806 5804 5801 5799 5796 5795 5792 5789 5788 5787 5786 5784 5783 5781 5780 5779 5778 5776 5775 5774 5773
5847 5847 5846 5845 5844 5843 5842 5842 5841 5840 5839 5838 5836 5835 5833 5831 5829 5826 5824 5822 5820 5818 5816 5813 5810 5808 5806 5803 5800 5797 5795 5792 5789 5787 5785 5783 5781 5780 5779 5777 5775 5774 5773 5772 5771 5769 5768 5767 5766
5845 5844 5844 5843 5841 5840 5839 5838 5837 5836 5835 5833 5832 5830 5828 5826 5823 5821 5819 5817 5815 5813 5811 5808 5805 5803 5800 5797 5794 5791 5789 5786 5783 5781 5779 5777 5775 5774 5772 5771 5769 5768 5767 5765 5764 5762 5760 5759 5758
5842 5842 5841 5840 5839 5837 5835 5834 5832 5830 5829 5828 5827 5825 5823 5821 5819 5816 5814 5812 5810 5808 5806 5803 5800 5797 5794 5791 5788 5786 5783 5781 5778 5775 5773 5771 5769 5767 5766 5764 5763 5761 5759 5758 5757 5755 5753 5751 5750
5839 5839 5838 5836 5835 5834 5833 5830 5829 5826 5824 5823 5821 5819 5818 5816 5813 5811 5809 5807 5805 5803 5800 5797 5794 5791 5788 5785 5783 5780 5777 5775 5772 5769 5768 5765 5763 5761 5760 5758 5756 5754 5753 5751 5750 5748 5746 5744 5742
5837 5836 5834 5833 5832 5830 5829 5826 5825 5822 5820 5818 5816 5814 5812 5810 5808 5806 5804 5802 5800 5797 5794 5791 5788 5785 5782 5779 5776 5774 5771 5768 5766 5763 5761 5759 5758 5756 5754 5752 5750 5748 5746 5744 5742 5741 5739 5737 5735
5833 5833 5831 5830 5828 5827 5825 5822 5820 5818 5815 5813 5811 5808 5806 5804 5802 5800 5798 5796 5794 5791 5787 5784 5781 5778 5775 5772 5770 5767 5765 5762 5760 5758 5756 5754 5752 5750 5748 5746 5743 5741 5740 5738 5736 5734 5732 5730 5728
5831 5830 5828 5826 5824 5823 5821 5818 5817 5814 5811 5808 5806 5803 5801 5799 5797 5795 5793 5791 5788 5785 5781 5778 5775 5772 5769 5766 5763 5761 5758 5756 5754 5752 5750 5748 5746 5745 5743 5740 5738 5736 5734 5732 5730 5728 5726 5724 5721
5828 5827 5825 5823 5820 5819 5817 5814 5813 5809 5806 5803 5801 5798 5796 5793 5791 5789 5787 5784 5782 5779 5775 5772 5768 5765 5762 5760 5757 5755 5752 5750 5748 5747 5745 5743 5741 5740 5738 5736 5733 5731 5729 5726 5724 5722 5719 5717 5715
5825 5823 5822 5819 5816 5815 5813 5811 5808 5805 5802 5799 5796 5794 5791 5789 5786 5783 5781 5778 5775 5772 5769 5766 5762 5759 5756 5753 5751 5749 5746 5744 5743 5741 5740 5738 5737 5735 5733 5731 5728 5726 5723 5721 5718 5715 5712 5710 5708
5823 5821 5819 5816 5813 5811 5809 5807 5805 5802 5799 5796 5792 5790 5787 5784 5781 5778 5775 5772 5769 5766 5763 5760 5756 5753 5750 5747 5745 5743 5741 5739 5737 5736 5735 5733 5732 5730 5728 5725 5723 5720 5717 5714 5712 5709 5706 5703 5701
5821 5819 5817 5814 5811 5809 5805 5806 5802 5798 5795 5792 5789 5786 5783 5779 5776 5773 5770 5767 5763 5760 5757 5754 5750 5747 5744 5742 5739 5738 5736 5735 5733 5731 5730 5728 5726 5725 5723 5720 5717 5715 5712 5709 5706 5703 5700 5697 5694
5819 5817 5814 5812 5809 5806 5803 5804 5798 5794 5791 5787 5785 5781 5778 5775 5771 5768 5765 5762 5759 5755 5752 5748 5745 5742 5740 5737 5736 5734 5733 5731 5729 5727 5725 5723 5722 5720 5718 5715 5712 5709 5706 5703 5700 5697 5694 5691 5688